Location: Boiro
(42.6475°N, 8.8834°W)
Time: 00:41:14
(UTC+01:00)

Tiros 1 - Pass Details

Date: 07 December 2021
Orbit: 629 x 664 km, 48.4° (Epoch: 26 January)

Event Time Altitude Azimuth Distance (km) Brightness Sun altitude
Rises 21:01:17 0° 275° (W) 2,923 11.6 -32.1°
Reaches altitude 10° 21:03:42 10° 282° (WNW) 2,020 10.5 -32.6°
Enters shadow 21:05:52 25° 299° (WNW) 1,298 9.1 -33.0°
